Погода Красные Баки

Погода Красные Баки : погода сейчас, прогноз погоды и архив. Всё, что Вы хотите узнать о погоде Красные Баки!

Хотите узнать прогноз погоды Красные Баки? Тогда Вам сюда: Погода Красные Баки

Поиск расширенной информации на нашем сайте:

Другие новости

Новости СМИ2

Главная страница сайта

Новости сайта

03.07.2017

Напоминаем, что на нашем специализированном сайте Метеоцентр.Азия вы можете получить высокодетализированные автоматические прогнозы погоды по пунктам России, СНГ и мира в авиационном формате (включающие направление и скорость ветра, видимость, явления погоды, количество и форму облачности, нижнюю и верхнюю границу облачности).


Погода Красные Баки - сегодня

Время (UTC), дата Ветер
(°,м/с) 
Видим.   Явления Облачность Т
(°С)
Тd
(°С)
f(%) Тe
(°С)
Pmin
(гПа)
dP
(гПа)
Po
(мм)
O2
(г/м3)
Тmin Tmax R s Состояние
почвы
15 09.02.18 130 (ЮВ) 3-5{05}  10 км    10/10 1000 м 
[Sc]
-7.5 -9.2 88 -10  1034.6  -0.4  765  318    -5.8  0.0     
18 09.02.18 130 (ЮВ) 2-3{05}  10 км    10/10 1000 м 
[Sc]
-9.3 -10.9 88 -11  1034.2  -0.5  765  320           
03 10.02.18 140 (ЮВ) 2-3{03}  10 км    10/10 1000 м 
[Sc]
-12.6 -14.6 85 -15  1033.3  -0.7  764  324  -12.7      50  равномерный
сухой снег
100% 
15 10.02.18 160 (Ю) 1-3{03}  10 км    6/0 верхняя 
[Ci fib]
-7.4 -10 82 -7  1031.9  -0.5  763  317    -5.7       
21 10.02.18 140 (ЮВ) 2-2{03}  10 км    ясно 
-11.4 -12.7 90 -13  1031.6  -0.2  763  322           
03 11.02.18 160 (Ю) 3-3{04}  10 км    3/0 верхняя 
[Ci fib]
-14.4 -16.4 85 -18  1030.7  -0.5  762  325  -14.6      50  равномерный
сухой снег
100% 
15 11.02.18 150 (ЮВ) 1-2{03}  10 км    4/0 верхняя 
[Ci fib]
-7.9 -10.1 84 -8  1028.3  -0.4  760  317    -3.4       
03 12.02.18 тихо () -0{00}  10 км    ясно 
-18.6 -20.5 85 -19  1028.2  -0.3  760  330  -18.7      50  равномерный
сухой снег
100% 
06 12.02.18 тихо () -0{00}  20000 м    ясно 
-18.2 -20.1 85 -18  1028.7  0.5  760  330           
09 12.02.18 тихо () -0{00}  20000 м    ясно 
-6.9 -10.6 75 -7  1028.1  0.1  760  315           
18 12.02.18 290 (З) 1-1{01}  10 км    ясно 
-14.4 -15.7 90 -14  1028.6  0.2  760  325           
21 12.02.18 270 (З) 1-1{01}  10 км    ясно 
-17.5 -19.4 85 -18  1029.4  0.6  761  329           
03 13.02.18 тихо () -0{01}  10 км    ясно 
-21.2 -23 85 -21  1030.5  0.4  761  334  -21.3      49  равномерный
сухой снег
100% 
09 13.02.18 020 (С) 1-1{01}  20000 м    ясно 
-12 -15.5 75 -12  1031.1  0.4  762  323           
18 13.02.18 300 (СЗ) 1-1{02}  10 км    ясно 
-16 -17.9 85 -16  1032  0.4  763  328           
03 14.02.18 тихо () -0{01}  10 км    ясно 
-22.4 -24.9 80 -22  1034.5  0.6  764  337  -22.5      49  равномерный
сухой снег
100% 
06 14.02.18 тихо () -0{02}  20000 м    ясно 
-21.8 -23.6 85 -22  1035.3  0.9  765  337           
09 14.02.18 тихо () -1{01}  20000 м    ясно 
-12.4 -15.9 75 -12  1035.7  0.9  766  325           
03 15.02.18 тихо () -0{00}  10 км    8/0 средняя 
[Ac trans]
-22.8 -24.6 85 -23  1039.4  0.5  768  339  -23      49  равномерный
сухой снег
100% 
21 15.02.18 170 (Ю) 2-2{02}  10 км    ясно 
-16.3 -17.6 90 -19  1040.4  0.1  769  331           
03 16.02.18 170 (Ю) 1-2{02}  10 км    ясно 
-20 -21.9 85 -20  1040.2  -0.5  769  336  -20.2      49  равномерный
сухой снег
100% 
15 16.02.18 170 (Ю) 2-5{05}  10 км  слаб. снег  10/10 1000 м 
[Ns]
-7.7 -9.9 84 -9  1036.9  -0.8  767  319    -7.6  0.2     
03 17.02.18 140 (ЮВ) 1-3{04}  10 км    10/10 1000 м 
[Ns]
-7.1 -9.2 85 -7  1034.6  -0.6  765  317  -7.7    0.2  51  равномерный
сухой снег
100% 
15 17.02.18 160 (Ю) 3-4{07}  10 км    10/0 средняя 
[Ac und]
-4 -9 68 -6  1030.8  -0.7  762  313    -2.4       
03 18.02.18 150 (ЮВ) 3-5{06}  10 км    10/10 600 м 
[Ns]
-7 -9.5 82 -10  1027.5  -1.2  760  315  -7.1    0.3  51  равномерный
сухой снег
100% 
Время (UTC), дата Ветер
(°,м/с) 
Видим.   Явления Облачность Т
(°С)
Тd
(°С)
f(%) Тe
(°С)
Pmin
(гПа)
dP
(гПа)
Po
(мм)
O2
(г/м3)
Тmin Tmax R s Состояние
почвы

Для получения пояснительной информации подведите курсор к названию столбца.

ПОГОДА Красные Баки - архив

Всё, что Вы хотите узнать о погоде Красные Баки - удобно и подробно!

Выберите нужную дату (начиная с 1 января 2015* года) и нажмите кнопку "Найти".
Будут отображены архивные сводки погоды по пункту Красные Баки, начиная с указанной даты.


Отображать данные в формате CSV (для использования в таблицах Excel)


Внимание! Наш архив погоды предназначен исключительно для личного некоммерческого использования в познавательных целях. Если Вам необходимы официальные справки о состоянии погоды (для производственных, юридических, коммерческих и т.п. целей), обращайтесь в органы Росгидромета.

*Примечание: данная дата относится к архиву по метеостанциям СССР (Россия, СНГ, Балтия).
Архив по метеостанциям Зарубежной Европы и Азии (кроме Китая) хранится 10 дней, по другим регионам земного шара (Китай, Африка, Америка, Австралия, Океания) - 1 день.

Красные Баки - район местоположения метеостанции


Название, широта, долгота, высота метеостанции:
Красные Баки 57.1°ш. 45.2°д. 110 м над ур. моря [Российская Федерация]

Дополнительная информация

В oтличие oт бoльшинства пoгoдных сайтoв мы публикуем пoдрoбную метеoинфoрмацию в детальнoм прoфессиoнальнoм фoрмате.

Характеристики температуры и влажнoсти вoздуха измеряются на высoте 2 м в тени вдали oт зданий и деревьев.
Скoрoсть ветра измеряется на высoте 10 м (на урoвне рoста челoвека скoрoсть ветра ниже в 1.5-2 раза). Если метеoстанция нахoдится в гoрoде или в лесу, тo скoрoсть ветра занижена на 2-4 м/с пo сравнению с oткрытым местoм. Скoрoсть ветра над акватoриями крупных рек и oзёр, а также на вершинах хoлмoв на 2-5 м/с выше, чем в oбычных услoвиях.
Атмoсфернoе давление в разных тoчках местнoсти мoжет значительнo oтличаться oт давления на метеoстанции, в зависимoсти oт услoвий рельефа (при пoдъёме на 10 м давление пoнижается примернo на 1 мм рт.ст.).